| time (UTC) | temp C | wind direction | speed KPH | gust KPH | rain 1hr cm | rain 24hr cm | rain mn cm | humidity % | barometer mb |
| 20260507013551 | 7 | 0 | 0.0 | 8.0 | 0.00 | 0.53 | 0.00 | 91 | 1011.3 |
| 20260507013112 | 6 | 330 | 0.0 | 8.0 | 0.00 | 0.53 | 0.00 | 91 | 1011.3 |
| 20260507012551 | 6 | 342 | 1.6 | 8.0 | 0.00 | 0.53 | 0.00 | 91 | 1011.3 |
| 20260507012052 | 6 | 0 | 1.6 | 8.0 | 0.00 | 0.53 | 0.00 | 91 | 1011.3 |
| 20260507011559 | 6 | 339 | 1.6 | 6.4 | 0.00 | 0.53 | 0.00 | 91 | 1011.3 |
| 20260507011051 | 7 | 301 | 0.0 | 6.4 | 0.00 | 0.53 | 0.00 | 91 | 1011.3 |
| 20260507010552 | 7 | 310 | 1.6 | 8.0 | 0.00 | 0.53 | 0.00 | 91 | 1011.2 |
| 20260507010057 | 6 | 0 | 1.6 | 9.7 | 0.00 | 0.53 | 0.00 | 91 | 1011.2 |
| 20260507005552 | 6 | 329 | 1.6 | 9.7 | 0.00 | 0.79 | 0.00 | 91 | 1011.2 |
| 20260507005051 | 6 | 0 | 4.8 | 9.7 | 0.00 | 0.79 | 0.00 | 91 | 1011.1 |
| 20260507004559 | 7 | 335 | 3.2 | 9.7 | 0.00 | 0.79 | 0.00 | 91 | 1011.1 |
| 20260507004052 | 6 | 309 | 3.2 | 9.7 | 0.00 | 0.79 | 0.00 | 91 | 1011.1 |
| 20260507003552 | 6 | 297 | 1.6 | 6.4 | 0.00 | 0.79 | 0.00 | 91 | 1011.2 |
| 20260507003051 | 6 | 319 | 1.6 | 6.4 | 0.00 | 0.79 | 0.00 | 91 | 1011.1 |
| 20260507002552 | 6 | 0 | 3.2 | 8.0 | 0.00 | 0.79 | 0.00 | 90 | 1011.1 |
| 20260507002052 | 6 | 285 | 3.2 | 8.0 | 0.00 | 0.79 | 0.00 | 90 | 1011.1 |
| 20260507001621 | 6 | 282 | 3.2 | 8.0 | 0.00 | 0.79 | 0.00 | 90 | 1010.9 |
| 20260507001054 | 6 | 272 | 1.6 | 8.0 | 0.00 | 0.79 | 0.00 | 90 | 1011.0 |
| 20260507000551 | 6 | 288 | 3.2 | 8.0 | 0.00 | 0.79 | 0.00 | 90 | 1010.9 |
| 20260507000051 | 6 | 290 | 1.6 | 8.0 | 0.00 | 0.79 | 0.00 | 90 | 1010.9 |
| 20260506235552 | 6 | 278 | 3.2 | 8.0 | 0.00 | 1.17 | 0.00 | 89 | 1010.9 |
| 20260506235052 | 6 | 240 | 3.2 | 8.0 | 0.00 | 1.17 | 0.00 | 89 | 1010.9 |
| 20260506234552 | 7 | 293 | 3.2 | 9.7 | 0.00 | 1.17 | 0.00 | 89 | 1010.9 |
| 20260506234054 | 7 | 284 | 3.2 | 9.7 | 0.00 | 1.17 | 0.00 | 89 | 1010.9 |
| 20260506233552 | 7 | 293 | 3.2 | 8.0 | 0.00 | 1.17 | 0.00 | 89 | 1011.0 |
| 20260506233052 | 7 | 297 | 4.8 | 9.7 | 0.00 | 1.17 | 0.00 | 88 | 1010.9 |
| 20260506232551 | 7 | 285 | 4.8 | 9.7 | 0.00 | 1.17 | 0.00 | 89 | 1010.9 |
| 20260506232049 | 7 | 289 | 3.2 | 8.0 | 0.00 | 1.17 | 0.00 | 89 | 1010.9 |
| 20260506231554 | 7 | 256 | 1.6 | 6.4 | 0.00 | 1.17 | 0.00 | 89 | 1010.8 |
| 20260506231053 | 7 | 275 | 3.2 | 6.4 | 0.00 | 1.17 | 0.00 | 88 | 1010.8 |
| 20260506230552 | 7 | 266 | 1.6 | 6.4 | 0.00 | 1.17 | 0.00 | 88 | 1010.9 |
| 20260506230055 | 7 | 256 | 1.6 | 8.0 | 0.00 | 1.17 | 0.00 | 88 | 1010.9 |
| 20260506225555 | 7 | 248 | 1.6 | 8.0 | 0.00 | 1.68 | 0.00 | 88 | 1010.9 |
| 20260506225052 | 6 | 290 | 3.2 | 8.0 | 0.00 | 1.68 | 0.00 | 88 | 1010.8 |
| 20260506224553 | 6 | 290 | 1.6 | 8.0 | 0.00 | 1.68 | 0.00 | 89 | 1010.8 |
| 20260506224052 | 6 | 267 | 3.2 | 8.0 | 0.00 | 1.68 | 0.00 | 88 | 1010.8 |
| 20260506223551 | 6 | 290 | 1.6 | 8.0 | 0.00 | 1.68 | 0.00 | 89 | 1010.7 |
| 20260506223104 | 6 | 313 | 3.2 | 8.0 | 0.00 | 1.68 | 0.00 | 89 | 1010.7 |
| 20260506222552 | 6 | 307 | 1.6 | 8.0 | 0.00 | 1.68 | 0.00 | 89 | 1010.7 |
| 20260506222054 | 6 | 304 | 1.6 | 8.0 | 0.00 | 1.68 | 0.00 | 89 | 1010.7 |
| 20260506221559 | 6 | 0 | 1.6 | 8.0 | 0.00 | 1.68 | 0.00 | 89 | 1010.7 |
| 20260506221053 | 6 | 343 | 1.6 | 6.4 | 0.00 | 1.68 | 0.00 | 89 | 1010.7 |
| 20260506220548 | 6 | 302 | 1.6 | 6.4 | 0.00 | 1.68 | 0.00 | 89 | 1010.7 |
| 20260506220054 | 7 | 21 | 0.0 | 4.8 | 0.00 | 1.68 | 0.00 | 89 | 1010.6 |
| 20260506215552 | 7 | 322 | 1.6 | 4.8 | 0.00 | 1.80 | 1.68 | 89 | 1010.6 |
| 20260506215051 | 6 | 0 | 1.6 | 4.8 | 0.00 | 1.80 | 1.68 | 89 | 1010.5 |
| 20260506214558 | 6 | 329 | 0.0 | 6.4 | 0.00 | 1.80 | 1.68 | 89 | 1010.3 |
| 20260506214050 | 6 | 5 | 1.6 | 6.4 | 0.00 | 1.80 | 1.68 | 89 | 1010.2 |
| 20260506213550 | 6 | 6 | 3.2 | 6.4 | 0.00 | 1.80 | 1.68 | 88 | 1010.3 |
| 20260506213053 | 6 | 304 | 1.6 | 6.4 | 0.00 | 1.80 | 1.68 | 88 | 1010.2 |
| 20260506212552 | 6 | 0 | 1.6 | 8.0 | 0.00 | 1.80 | 1.68 | 88 | 1010.2 |
| 20260506212056 | 7 | 323 | 1.6 | 8.0 | 0.00 | 1.80 | 1.68 | 88 | 1010.1 |
| 20260506211551 | 6 | 8 | 4.8 | 8.0 | 0.00 | 1.80 | 1.68 | 88 | 1009.9 |
| 20260506211052 | 7 | 8 | 3.2 | 9.7 | 0.00 | 1.80 | 1.68 | 88 | 1010.0 |
| 20260506210552 | 7 | 4 | 3.2 | 9.7 | 0.00 | 1.80 | 1.68 | 88 | 1010.0 |
| 20260506210052 | 7 | 11 | 3.2 | 9.7 | 0.00 | 1.80 | 1.68 | 87 | 1010.0 |
| 20260506205551 | 7 | 42 | 4.8 | 8.0 | 0.00 | 1.96 | 1.68 | 88 | 1010.0 |
| 20260506205051 | 7 | 356 | 3.2 | 6.4 | 0.00 | 1.96 | 1.68 | 88 | 1009.9 |
| 20260506204552 | 7 | 0 | 0.0 | 6.4 | 0.00 | 1.96 | 1.68 | 87 | 1009.9 |
| 20260506204052 | 7 | 27 | 0.0 | 6.4 | 0.00 | 1.96 | 1.68 | 87 | 1009.9 |
| 20260506203551 | 7 | 3 | 3.2 | 6.4 | 0.00 | 1.96 | 1.68 | 87 | 1009.9 |
| 20260506203055 | 7 | 0 | 1.6 | 9.7 | 0.00 | 1.96 | 1.68 | 87 | 1009.9 |
| 20260506202551 | 7 | 11 | 1.6 | 9.7 | 0.00 | 1.96 | 1.68 | 87 | 1009.9 |
| 20260506202048 | 7 | 5 | 1.6 | 9.7 | 0.00 | 1.96 | 1.68 | 87 | 1009.8 |
| 20260506201552 | 7 | 1 | 0.0 | 6.4 | 0.00 | 1.96 | 1.68 | 87 | 1009.8 |
| 20260506201053 | 7 | 9 | 1.6 | 8.0 | 0.00 | 1.96 | 1.68 | 87 | 1009.7 |
| 20260506200552 | 7 | 1 | 3.2 | 9.7 | 0.00 | 1.96 | 1.68 | 87 | 1009.6 |
| 20260506200136 | 7 | 360 | 3.2 | 12.9 | 0.00 | 1.96 | 1.68 | 87 | 1009.5 |
| 20260506195552 | 7 | 347 | 3.2 | 14.5 | 0.00 | 2.18 | 1.68 | 87 | 1009.4 |
| 20260506195052 | 7 | 356 | 8.0 | 14.5 | 0.00 | 2.18 | 1.68 | 87 | 1009.3 |
| 20260506194603 | 7 | 19 | 4.8 | 9.7 | 0.00 | 2.18 | 1.68 | 88 | 1009.3 |
| 20260506194051 | 7 | 19 | 3.2 | 8.0 | 0.00 | 2.18 | 1.68 | 88 | 1009.2 |
| 20260506193551 | 8 | 0 | 4.8 | 11.3 | 0.00 | 2.18 | 1.68 | 87 | 1009.1 |
| 20260506193054 | 8 | 18 | 1.6 | 12.9 | 0.00 | 2.18 | 1.68 | 87 | 1009.1 |
| 20260506192553 | 8 | 349 | 4.8 | 12.9 | 0.00 | 2.18 | 1.68 | 87 | 1009.1 |
| 20260506192054 | 8 | 333 | 1.6 | 11.3 | 0.00 | 2.18 | 1.68 | 87 | 1009.0 |
| 20260506191552 | 8 | 311 | 4.8 | 11.3 | 0.00 | 2.18 | 1.68 | 87 | 1008.9 |
| 20260506191052 | 8 | 335 | 1.6 | 11.3 | 0.00 | 2.18 | 1.68 | 87 | 1008.8 |
| 20260506190553 | 8 | 338 | 3.2 | 14.5 | 0.00 | 2.18 | 1.68 | 87 | 1008.7 |
| 20260506190052 | 8 | 342 | 4.8 | 16.1 | 0.00 | 2.18 | 1.68 | 87 | 1008.6 |
| 20260506185553 | 8 | 328 | 3.2 | 16.1 | 0.00 | 2.31 | 1.68 | 87 | 1008.5 |
| 20260506185052 | 8 | 347 | 4.8 | 16.1 | 0.00 | 2.31 | 1.68 | 87 | 1008.5 |
| 20260506184556 | 8 | 0 | 4.8 | 16.1 | 0.00 | 2.31 | 1.68 | 86 | 1008.5 |
| 20260506184053 | 8 | 12 | 4.8 | 17.7 | 0.00 | 2.31 | 1.68 | 87 | 1008.5 |
| 20260506183552 | 8 | 355 | 6.4 | 17.7 | 0.00 | 2.31 | 1.68 | 86 | 1008.5 |
| 20260506183054 | 8 | 29 | 8.0 | 17.7 | 0.00 | 2.31 | 1.68 | 86 | 1008.5 |
| 20260506182551 | 8 | 333 | 4.8 | 11.3 | 0.00 | 2.31 | 1.68 | 86 | 1008.5 |
| 20260506182053 | 8 | 25 | 4.8 | 16.1 | 0.00 | 2.31 | 1.68 | 86 | 1008.5 |
| 20260506181556 | 8 | 0 | 6.4 | 16.1 | 0.00 | 2.31 | 1.68 | 86 | 1008.5 |
| 20260506181053 | 8 | 3 | 4.8 | 11.3 | 0.00 | 2.31 | 1.68 | 86 | 1008.3 |
| 20260506180552 | 8 | 5 | 3.2 | 11.3 | 0.00 | 2.31 | 1.68 | 86 | 1008.4 |
| 20260506180058 | 8 | 338 | 3.2 | 11.3 | 0.00 | 2.31 | 1.68 | 86 | 1008.4 |
| 20260506175553 | 8 | 319 | 4.8 | 11.3 | 0.00 | 2.36 | 1.68 | 86 | 1008.3 |
| 20260506175051 | 8 | 305 | 1.6 | 11.3 | 0.00 | 2.36 | 1.68 | 86 | 1008.3 |
| 20260506174553 | 8 | 10 | 4.8 | 11.3 | 0.00 | 2.36 | 1.68 | 86 | 1008.3 |
| 20260506174051 | 8 | 355 | 6.4 | 11.3 | 0.00 | 2.36 | 1.68 | 86 | 1008.3 |
| 20260506173551 | 8 | 322 | 4.8 | 11.3 | 0.00 | 2.36 | 1.68 | 86 | 1008.2 |
| 20260506173116 | 8 | 36 | 3.2 | 9.7 | 0.00 | 2.36 | 1.68 | 86 | 1008.2 |
| 20260506172555 | 8 | 16 | 3.2 | 14.5 | 0.00 | 2.36 | 1.68 | 85 | 1008.0 |
| 20260506172048 | 8 | 342 | 6.4 | 14.5 | 0.00 | 2.36 | 1.68 | 85 | 1008.0 |
| 20260506171603 | 8 | 5 | 4.8 | 12.9 | 0.00 | 2.36 | 1.68 | 85 | 1007.9 |
| 20260506171051 | 8 | 356 | 6.4 | 19.3 | 0.00 | 2.36 | 1.68 | 85 | 1007.8 |
| 20260506170549 | 8 | 34 | 8.0 | 19.3 | 0.00 | 2.36 | 1.68 | 85 | 1007.8 |
| 20260506170059 | 8 | 2 | 8.0 | 19.3 | 0.00 | 2.36 | 1.68 | 85 | 1007.8 |
| 20260506165551 | 8 | 6 | 9.7 | 17.7 | 0.00 | 2.46 | 1.68 | 86 | 1007.9 |
| 20260506165051 | 9 | 1 | 9.7 | 17.7 | 0.00 | 2.46 | 1.68 | 86 | 1007.8 |
| 20260506164552 | 9 | 291 | 8.0 | 17.7 | 0.00 | 2.46 | 1.68 | 86 | 1007.9 |
| 20260506164051 | 9 | 329 | 9.7 | 17.7 | 0.00 | 2.46 | 1.68 | 86 | 1007.9 |
| 20260506163551 | 9 | 8 | 6.4 | 17.7 | 0.00 | 2.46 | 1.68 | 86 | 1007.8 |
| 20260506163107 | 9 | 345 | 8.0 | 20.9 | 0.00 | 2.46 | 1.68 | 86 | 1007.8 |
| 20260506162555 | 9 | 354 | 6.4 | 20.9 | 0.00 | 2.46 | 1.68 | 86 | 1007.8 |
| 20260506162053 | 9 | 5 | 8.0 | 20.9 | 0.00 | 2.46 | 1.68 | 86 | 1007.8 |
| 20260506161556 | 9 | 1 | 8.0 | 19.3 | 0.00 | 2.46 | 1.68 | 85 | 1007.8 |
| 20260506161048 | 9 | 28 | 8.0 | 14.5 | 0.00 | 2.46 | 1.68 | 85 | 1007.8 |
| 20260506160553 | 10 | 58 | 8.0 | 20.9 | 0.00 | 2.46 | 1.68 | 85 | 1007.8 |
| 20260506160107 | 10 | 25 | 6.4 | 20.9 | 0.00 | 2.46 | 1.68 | 85 | 1007.8 |
| 20260506155548 | 10 | 39 | 12.9 | 20.9 | 0.00 | 2.54 | 1.68 | 84 | 1007.8 |
| 20260506155048 | 10 | 356 | 11.3 | 20.9 | 0.00 | 2.54 | 1.68 | 84 | 1007.8 |
| 20260506154553 | 10 | 11 | 9.7 | 20.9 | 0.00 | 2.54 | 1.68 | 85 | 1007.7 |
| 20260506154052 | 10 | 360 | 11.3 | 20.9 | 0.00 | 2.54 | 1.68 | 85 | 1007.7 |
| 20260506153552 | 10 | 30 | 8.0 | 19.3 | 0.00 | 2.54 | 1.68 | 86 | 1007.7 |
| 20260506153057 | 10 | 333 | 9.7 | 22.5 | 0.00 | 2.54 | 1.68 | 85 | 1007.6 |
| 20260506152552 | 10 | 351 | 9.7 | 22.5 | 0.00 | 2.54 | 1.68 | 84 | 1007.6 |
| 20260506152048 | 10 | 25 | 12.9 | 20.9 | 0.00 | 2.54 | 1.68 | 85 | 1007.6 |
| 20260506151554 | 10 | 4 | 9.7 | 22.5 | 0.00 | 2.54 | 1.68 | 85 | 1007.5 |
| 20260506151051 | 10 | 4 | 11.3 | 22.5 | 0.00 | 2.54 | 1.68 | 84 | 1007.5 |
| 20260506150549 | 10 | 333 | 8.0 | 16.1 | 0.00 | 2.54 | 1.68 | 84 | 1007.5 |
| 20260506150104 | 10 | 16 | 8.0 | 20.9 | 0.00 | 2.54 | 1.68 | 84 | 1007.5 |
| 20260506145555 | 10 | 73 | 8.0 | 20.9 | 0.00 | 2.69 | 1.68 | 83 | 1007.5 |
| 20260506145048 | 10 | 5 | 9.7 | 24.1 | 0.00 | 2.69 | 1.68 | 83 | 1007.4 |
| 20260506144553 | 10 | 356 | 9.7 | 24.1 | 0.00 | 2.69 | 1.68 | 84 | 1007.4 |
| 20260506144048 | 10 | 360 | 12.9 | 24.1 | 0.00 | 2.69 | 1.68 | 85 | 1007.4 |
| 20260506143550 | 10 | 329 | 9.7 | 17.7 | 0.00 | 2.69 | 1.68 | 86 | 1007.4 |
| 20260506143055 | 10 | 356 | 6.4 | 17.7 | 0.00 | 2.69 | 1.68 | 86 | 1007.6 |
| 20260506142548 | 10 | 338 | 6.4 | 19.3 | 0.00 | 2.69 | 1.68 | 85 | 1007.5 |
| 20260506142050 | 10 | 290 | 6.4 | 19.3 | 0.00 | 2.69 | 1.68 | 85 | 1007.5 |
| 20260506141549 | 10 | 344 | 8.0 | 19.3 | 0.00 | 2.69 | 1.68 | 85 | 1007.5 |
| 20260506141052 | 10 | 326 | 6.4 | 16.1 | 0.00 | 2.69 | 1.68 | 86 | 1007.4 |
| 20260506140555 | 10 | 343 | 4.8 | 19.3 | 0.00 | 2.69 | 1.68 | 87 | 1007.4 |
| 20260506140053 | 10 | 27 | 6.4 | 19.3 | 0.00 | 2.69 | 1.68 | 87 | 1007.5 |
| 20260506135551 | 9 | 332 | 11.3 | 19.3 | 0.00 | 2.87 | 1.68 | 86 | 1007.4 |
| 20260506135051 | 10 | 11 | 4.8 | 17.7 | 0.00 | 2.87 | 1.68 | 86 | 1007.3 |
| 20260506134615 | 10 | 4 | 8.0 | 17.7 | 0.00 | 2.87 | 1.68 | 86 | 1007.4 |
| 20260506134055 | 10 | 348 | 11.3 | 17.7 | 0.00 | 2.87 | 1.68 | 85 | 1007.3 |
| 20260506133552 | 10 | 338 | 4.8 | 19.3 | 0.00 | 2.87 | 1.68 | 85 | 1007.4 |
| 20260506133051 | 10 | 331 | 9.7 | 19.3 | 0.00 | 2.87 | 1.68 | 85 | 1007.3 |
| 20260506132551 | 10 | 34 | 9.7 | 19.3 | 0.00 | 2.87 | 1.68 | 85 | 1007.3 |
| 20260506132051 | 10 | 352 | 8.0 | 17.7 | 0.00 | 2.87 | 1.68 | 87 | 1007.3 |
| 20260506131607 | 10 | 341 | 9.7 | 17.7 | 0.00 | 2.87 | 1.68 | 86 | 1007.3 |
| 20260506131048 | 10 | 17 | 8.0 | 17.7 | 0.00 | 2.87 | 1.68 | 86 | 1007.3 |
| 20260506130551 | 10 | 6 | 8.0 | 19.3 | 0.00 | 2.87 | 1.68 | 87 | 1007.2 |
| 20260506130052 | 10 | 352 | 6.4 | 19.3 | 0.00 | 2.87 | 1.68 | 87 | 1007.2 |
| 20260506125548 | 10 | 338 | 8.0 | 19.3 | 0.00 | 2.87 | 1.68 | 87 | 1007.2 |
| 20260506125048 | 10 | 281 | 4.8 | 14.5 | 0.00 | 2.87 | 1.68 | 87 | 1007.1 |
| 20260506124554 | 10 | 82 | 6.4 | 16.1 | 0.00 | 2.87 | 1.68 | 87 | 1007.1 |
| 20260506124048 | 10 | 319 | 3.2 | 16.1 | 0.00 | 2.87 | 1.68 | 88 | 1007.0 |
| 20260506123548 | 9 | 306 | 6.4 | 16.1 | 0.00 | 2.87 | 1.68 | 87 | 1007.0 |
| 20260506123051 | 9 | 342 | 8.0 | 16.1 | 0.00 | 2.87 | 1.68 | 87 | 1006.9 |
| 20260506122548 | 9 | 0 | 8.0 | 16.1 | 0.00 | 2.87 | 1.68 | 87 | 1006.8 |
| 20260506122050 | 9 | 319 | 6.4 | 14.5 | 0.00 | 2.87 | 1.68 | 87 | 1006.9 |
| 20260506121554 | 9 | 2 | 4.8 | 16.1 | 0.00 | 2.87 | 1.68 | 87 | 1006.8 |
| 20260506121050 | 9 | 287 | 3.2 | 16.1 | 0.00 | 2.87 | 1.68 | 87 | 1006.8 |
| 20260506120550 | 9 | 8 | 3.2 | 14.5 | 0.00 | 2.87 | 1.68 | 87 | 1006.8 |
| 20260506120055 | 10 | 340 | 6.4 | 14.5 | 0.00 | 2.87 | 1.68 | 87 | 1006.7 |
| 20260506115552 | 10 | 305 | 3.2 | 14.5 | 0.00 | 2.87 | 1.68 | 87 | 1006.7 |
| 20260506115048 | 10 | 342 | 6.4 | 16.1 | 0.00 | 2.87 | 1.68 | 87 | 1006.6 |
| 20260506114553 | 10 | 8 | 8.0 | 16.1 | 0.00 | 2.87 | 1.68 | 88 | 1006.6 |
| 20260506114052 | 10 | 16 | 6.4 | 19.3 | 0.00 | 2.87 | 1.68 | 87 | 1006.5 |
| 20260506113551 | 10 | 13 | 8.0 | 19.3 | 0.00 | 2.87 | 1.68 | 87 | 1006.5 |
| 20260506113053 | 10 | 356 | 6.4 | 19.3 | 0.00 | 2.87 | 1.68 | 87 | 1006.4 |
| 20260506112551 | 10 | 9 | 11.3 | 17.7 | 0.00 | 2.87 | 1.68 | 87 | 1006.5 |
| 20260506112050 | 10 | 23 | 8.0 | 17.7 | 0.00 | 2.87 | 1.68 | 87 | 1006.5 |
| 20260506111610 | 10 | 360 | 6.4 | 17.7 | 0.00 | 2.87 | 1.68 | 87 | 1006.5 |
| 20260506111050 | 10 | 360 | 8.0 | 17.7 | 0.00 | 2.87 | 1.68 | 87 | 1006.4 |
| 20260506110553 | 10 | 338 | 9.7 | 17.7 | 0.00 | 2.87 | 1.68 | 87 | 1006.2 |
| 20260506110053 | 10 | 345 | 9.7 | 16.1 | 0.00 | 2.87 | 1.68 | 87 | 1006.2 |
| 20260506105552 | 10 | 18 | 8.0 | 16.1 | 0.00 | 2.87 | 1.68 | 87 | 1006.4 |
| 20260506105051 | 10 | 340 | 6.4 | 12.9 | 0.00 | 2.87 | 1.68 | 88 | 1006.3 |
| 20260506104551 | 10 | 5 | 4.8 | 14.5 | 0.00 | 2.87 | 1.68 | 88 | 1006.1 |
| 20260506104055 | 10 | 63 | 8.0 | 14.5 | 0.00 | 2.87 | 1.68 | 88 | 1006.2 |
| 20260506103551 | 10 | 18 | 8.0 | 14.5 | 0.00 | 2.87 | 1.68 | 89 | 1006.1 |
| 20260506103051 | 10 | 32 | 6.4 | 16.1 | 0.00 | 2.87 | 1.68 | 89 | 1006.2 |
| 20260506102551 | 10 | 34 | 6.4 | 16.1 | 0.00 | 2.87 | 1.68 | 89 | 1006.2 |
| 20260506102053 | 9 | 8 | 6.4 | 12.9 | 0.00 | 2.87 | 1.68 | 89 | 1006.2 |
| 20260506101553 | 9 | 6 | 4.8 | 17.7 | 0.00 | 2.87 | 1.68 | 89 | 1006.2 |
| 20260506101051 | 9 | 23 | 4.8 | 17.7 | 0.00 | 2.87 | 1.68 | 89 | 1006.2 |
| 20260506100548 | 9 | 5 | 6.4 | 17.7 | 0.00 | 2.87 | 1.68 | 89 | 1006.1 |
| 20260506100051 | 9 | 310 | 8.0 | 14.5 | 0.00 | 2.87 | 1.68 | 89 | 1006.0 |
| 20260506095551 | 9 | 50 | 6.4 | 12.9 | 0.00 | 2.87 | 1.68 | 89 | 1005.9 |
| 20260506095050 | 9 | 353 | 4.8 | 16.1 | 0.00 | 2.87 | 1.68 | 90 | 1006.0 |
| 20260506094553 | 9 | 23 | 4.8 | 16.1 | 0.00 | 2.87 | 1.68 | 89 | 1005.9 |
| 20260506094050 | 9 | 317 | 6.4 | 16.1 | 0.00 | 2.87 | 1.68 | 89 | 1005.8 |
| 20260506093554 | 10 | 345 | 4.8 | 14.5 | 0.00 | 2.87 | 1.68 | 89 | 1005.9 |
| 20260506093055 | 10 | 331 | 4.8 | 14.5 | 0.00 | 2.87 | 1.68 | 89 | 1005.8 |
| 20260506092551 | 10 | 292 | 4.8 | 16.1 | 0.00 | 2.87 | 1.68 | 90 | 1005.7 |
| 20260506092053 | 10 | 6 | 6.4 | 19.3 | 0.00 | 2.87 | 1.68 | 90 | 1005.7 |
| 20260506091552 | 10 | 340 | 9.7 | 19.3 | 0.00 | 2.87 | 1.68 | 90 | 1005.7 |
| 20260506091050 | 10 | 352 | 8.0 | 19.3 | 0.00 | 2.87 | 1.68 | 90 | 1005.7 |
| 20260506090552 | 9 | 39 | 9.7 | 19.3 | 0.00 | 2.87 | 1.68 | 90 | 1005.7 |
| 20260506090051 | 9 | 18 | 9.7 | 19.3 | 0.00 | 2.87 | 1.68 | 91 | 1005.7 |
| 20260506085551 | 10 | 1 | 8.0 | 16.1 | 0.00 | 2.87 | 1.68 | 91 | 1005.6 |
| 20260506085051 | 10 | 340 | 6.4 | 16.1 | 0.00 | 2.87 | 1.68 | 92 | 1005.5 |
| 20260506084553 | 10 | 55 | 8.0 | 16.1 | 0.00 | 2.87 | 1.68 | 92 | 1005.6 |
| 20260506084053 | 9 | 19 | 4.8 | 14.5 | 0.00 | 2.87 | 1.68 | 92 | 1005.5 |
| 20260506083548 | 9 | 7 | 6.4 | 12.9 | 0.00 | 2.87 | 1.68 | 92 | 1005.6 |
| 20260506083115 | 8 | 6 | 6.4 | 14.5 | 0.00 | 2.87 | 1.68 | 92 | 1005.6 |
| 20260506082550 | 8 | 308 | 3.2 | 14.5 | 0.00 | 2.87 | 1.68 | 92 | 1005.6 |
| 20260506082052 | 8 | 20 | 6.4 | 14.5 | 0.03 | 2.87 | 1.68 | 92 | 1005.6 |
| 20260506081553 | 8 | 16 | 6.4 | 14.5 | 0.03 | 2.87 | 1.68 | 92 | 1005.5 |
| 20260506081052 | 8 | 330 | 6.4 | 14.5 | 0.03 | 2.87 | 1.68 | 92 | 1005.5 |
| 20260506080552 | 8 | 330 | 4.8 | 14.5 | 0.03 | 2.87 | 1.68 | 92 | 1005.5 |
| 20260506073054 | 8 | 333 | 6.4 | 14.5 | 0.00 | 2.84 | 1.65 | 93 | 1005.2 |
| 20260506072551 | 8 | 327 | 3.2 | 11.3 | 0.00 | 2.84 | 1.65 | 93 | 1005.3 |
| 20260506072050 | 8 | 356 | 4.8 | 11.3 | 0.00 | 2.82 | 1.63 | 93 | 1005.2 |
| 20260506071556 | 8 | 303 | 3.2 | 12.9 | 0.00 | 2.82 | 1.63 | 93 | 1005.1 |
| 20260506071048 | 8 | 20 | 3.2 | 14.5 | 0.00 | 2.82 | 1.63 | 93 | 1005.1 |
| 20260506070552 | 8 | 345 | 8.0 | 14.5 | 0.00 | 2.82 | 1.63 | 93 | 1005.1 |
| 20260506070121 | 8 | 2 | 6.4 | 12.9 | 0.00 | 2.82 | 1.63 | 93 | 1005.0 |
| 20260506062050 | 8 | 6 | 3.2 | 12.9 | 0.00 | 2.82 | 1.63 | 93 | 1004.8 |
| 20260506061557 | 8 | 13 | 6.4 | 12.9 | 0.00 | 2.82 | 1.63 | 93 | 1004.8 |
| 20260506061051 | 8 | 7 | 6.4 | 11.3 | 0.00 | 2.82 | 1.63 | 94 | 1004.8 |
| 20260506060552 | 8 | 335 | 4.8 | 11.3 | 0.00 | 2.82 | 1.63 | 93 | 1004.6 |
| 20260506051050 | 8 | 360 | 1.6 | 6.4 | 0.00 | 2.82 | 1.60 | 94 | 1004.4 |
| 20260506050550 | 8 | 51 | 1.6 | 8.0 | 0.00 | 2.82 | 1.60 | 93 | 1004.4 |
| 20260506045052 | 8 | 6 | 4.8 | 9.7 | 0.03 | 2.82 | 1.60 | 94 | 1004.4 |
| 20260506044602 | 8 | 356 | 4.8 | 9.7 | 0.03 | 2.82 | 1.60 | 94 | 1004.4 |
| 20260506044048 | 8 | 1 | 4.8 | 11.3 | 0.03 | 2.82 | 1.60 | 94 | 1004.4 |
| 20260506043551 | 8 | 13 | 4.8 | 11.3 | 0.05 | 2.82 | 1.60 | 94 | 1004.4 |
| 20260506043059 | 8 | 8 | 3.2 | 8.0 | 0.05 | 2.82 | 1.60 | 94 | 1004.3 |
| 20260506042551 | 8 | 10 | 3.2 | 8.0 | 0.08 | 2.82 | 1.60 | 94 | 1004.5 |
| 20260506042050 | 8 | 34 | 3.2 | 6.4 | 0.08 | 2.82 | 1.60 | 94 | 1004.5 |
| 20260506041619 | 8 | 296 | 1.6 | 6.4 | 0.10 | 2.82 | 1.60 | 94 | 1004.5 |
| 20260506041048 | 8 | 297 | 1.6 | 6.4 | 0.13 | 2.79 | 1.57 | 93 | 1004.5 |
| 20260506040552 | 8 | 322 | 1.6 | 8.0 | 0.13 | 2.79 | 1.57 | 93 | 1004.5 |
| 20260506040059 | 8 | 300 | 3.2 | 8.0 | 0.15 | 2.79 | 1.57 | 93 | 1004.5 |
| 20260506035553 | 8 | 262 | 1.6 | 8.0 | 0.18 | 2.79 | 1.57 | 93 | 1004.5 |
| 20260506035051 | 8 | 0 | 3.2 | 8.0 | 0.18 | 2.77 | 1.57 | 93 | 1004.6 |
| 20260506034559 | 8 | 264 | 3.2 | 6.4 | 0.18 | 2.77 | 1.57 | 93 | 1004.6 |
| 20260506034050 | 9 | 0 | 1.6 | 6.4 | 0.18 | 2.77 | 1.57 | 94 | 1004.6 |
| 20260506033550 | 9 | 234 | 0.0 | 4.8 | 0.18 | 2.74 | 1.55 | 94 | 1004.6 |
| 20260506033055 | 9 | 0 | 0.0 | 3.2 | 0.23 | 2.74 | 1.55 | 94 | 1004.5 |
| 20260506032552 | 9 | 0 | 0.0 | 3.2 | 0.20 | 2.72 | 1.52 | 94 | 1004.6 |
| 20260506032053 | 9 | 203 | 0.0 | 4.8 | 0.20 | 2.72 | 1.50 | 94 | 1004.6 |
| 20260506031550 | 9 | 255 | 1.6 | 4.8 | 0.18 | 2.69 | 1.50 | 93 | 1004.6 |
| 20260506031049 | 9 | 0 | 1.6 | 4.8 | 0.15 | 2.64 | 1.45 | 94 | 1004.6 |
| 20260506030551 | 9 | 0 | 0.0 | 6.4 | 0.15 | 2.62 | 1.42 | 94 | 1004.6 |
| 20260506030059 | 9 | 283 | 1.6 | 6.4 | 0.18 | 2.62 | 1.42 | 94 | 1004.6 |
| 20260506025550 | 9 | 339 | 3.2 | 6.4 | 0.15 | 2.62 | 1.40 | 93 | 1004.8 |
| 20260506025051 | 9 | 281 | 1.6 | 8.0 | 0.13 | 2.62 | 1.40 | 93 | 1004.6 |
| 20260506024605 | 9 | 0 | 1.6 | 8.0 | 0.10 | 2.59 | 1.37 | 93 | 1004.7 |
| 20260506024048 | 9 | 0 | 0.0 | 4.8 | 0.10 | 2.59 | 1.37 | 94 | 1004.7 |
| 20260506023548 | 9 | 0 | 0.0 | 11.3 | 0.08 | 2.57 | 1.35 | 94 | 1004.6 |
| 20260506023056 | 9 | 0 | 0.0 | 11.3 | 0.08 | 2.54 | 1.30 | 94 | 1004.6 |
| 20260506022550 | 9 | 333 | 3.2 | 11.3 | 0.08 | 2.54 | 1.30 | 93 | 1004.6 |
| 20260506022050 | 9 | 0 | 1.6 | 9.7 | 0.05 | 2.51 | 1.30 | 93 | 1004.6 |
| 20260506021557 | 9 | 309 | 4.8 | 9.7 | 0.08 | 2.51 | 1.30 | 93 | 1004.6 |
| 20260506021051 | 9 | 47 | 3.2 | 9.7 | 0.08 | 2.51 | 1.30 | 93 | 1004.6 |
| 20260506020551 | 9 | 27 | 3.2 | 9.7 | 0.08 | 2.49 | 1.27 | 93 | 1004.6 |
| 20260506020108 | 9 | 23 | 1.6 | 12.9 | 0.08 | 2.46 | 1.24 | 93 | 1004.6 |
| 20260506015551 | 9 | 293 | 6.4 | 16.1 | 0.10 | 2.46 | 1.24 | 93 | 1004.6 |
| 20260506015051 | 9 | 338 | 4.8 | 16.1 | 0.13 | 2.46 | 1.24 | 93 | 1004.6 |
| 20260506014612 | 9 | 41 | 4.8 | 12.9 | 0.18 | 2.46 | 1.24 | 93 | 1004.7 |
| 20260506014048 | 9 | 49 | 6.4 | 12.9 | 0.20 | 2.46 | 1.24 | 93 | 1004.6 |